ASIASAT 5

Last updated on Mon Jun 22 2026 00:03:03 GMT+0000 (Coordinated Universal Time)

1 35696U 09042A 26172.55256350 .00000000 00000+0 00000+0 0 9991 2 35696 0.0349 55.7951 0001538 37.1346 116.3031 1.00265222 61754
UTC large
Height (km)
Speed (km/s)
/
Latitude / Longitude
Inclination (degrees)
Orbital Period (minutes)
Azimuth
Elevation
Range (km)
Doppler Factor

Next 0 passes for location: London (51.5072 / 0.1276)

No passes found over London.
ASIASAT 5